Weather History for Montreal Mirabel, QC

Change the Weather History Date:

Friday, January 18, 2013

  Actual Average Record
Temperature  
Mean Temperature -7 °F -  
Max Temperature 6 °F 15 °F 35 °F (1999)
Min Temperature -20 °F 0 °F -25 °F (1997)
Degree Days  
Heating Degree Days 72    
Moisture  
Dew Point -14 °F    
Average Humidity 62    
Maximum Humidity 85    
Minimum Humidity 48    
Precipitation  
Precipitation 0.00 in - - ()
Sea Level Pressure  
Sea Level Pressure 30.30 in    
Wind  
Wind Speed 3 mph ()    
Max Wind Speed 14 mph    
Max Gust Speed 21 mph    
Visibility 12.2 miles    
Events Snow    
Averages and records for this station are not official NWS values.
T = Trace of Precipitation, MM = Missing Value Source: Averaged Metar Reports

Daily Weather History Graph

Daily Weather History Graph

Search for Another Location

Airport:

Trip Planner

Search our weather history database for the weather conditions in past years. The results will help you decide how hot, cold, wet, or windy it might be!

Date:

Astronomy

Jan. 18, 2013 Rise Set
Actual Time 7:30 AM EST 4:42 PM EST
Civil Twilight 6:57 AM EST 5:15 PM EST
Nautical Twilight 6:21 AM EST 5:52 PM EST
Astronomical Twilight 5:45 AM EST 6:27 PM EST
Moon 10:42 AM EST (1/18) No Moon Set
Length of Visible Light 10h 17m
Length of Day
9h 11m
Waxing Crescent, 47% of the Moon is Illuminated
Jan 18
Waxing Crescent
Jan 18
First Quarter
Jan 26
Full
Feb 3
Last Quarter
Feb 10
New

Hourly Weather History & Observations

Time (EST) Temp. Windchill Dew Point Humidity Pressure Visibility Wind Dir Wind Speed Gust Speed Precip Events Conditions
12:00 AM -13.0 °F - -25.6 °F 53% 30.22 in 25.0 mi Calm Calm - N/A   Clear
1:00 AM -13.0 °F - -23.8 °F 59% 30.25 in 25.0 mi Variable 2.3 mph - N/A   Clear
2:00 AM -11.2 °F - -22.0 °F 59% 30.25 in 25.0 mi Calm Calm - N/A   Clear
3:00 AM -16.6 °F -26.8 °F -23.8 °F 70% 30.27 in 25.0 mi WNW 3.5 mph - N/A   Clear
4:00 AM -14.8 °F -29.1 °F -22.0 °F 70% 30.28 in 25.0 mi West 5.8 mph - N/A   Clear
5:00 AM -16.6 °F - -23.8 °F 70% 30.29 in 25.0 mi Calm Calm - N/A   Clear
6:00 AM -20.2 °F -30.9 °F -25.6 °F 76% 30.32 in 25.0 mi WNW 3.5 mph - N/A   Clear
7:00 AM -20.2 °F - -27.4 °F 69% 30.33 in 25.0 mi Calm Calm - N/A   Partly Cloudy
8:00 AM -16.6 °F -29.3 °F -23.8 °F 70% 30.35 in 25.0 mi West 4.6 mph - N/A   Partly Cloudy
9:00 AM -11.2 °F -23.0 °F -18.4 °F 70% 30.36 in 30.0 mi WSW 4.6 mph - N/A   Mostly Cloudy
10:00 AM -5.8 °F -19.9 °F -14.8 °F 65% 30.37 in 25.0 mi WSW 6.9 mph - N/A   Clear
11:00 AM -2.2 °F -18.0 °F -13.0 °F 60% 30.37 in 20.0 mi WSW 9.2 mph - N/A   Clear
12:00 PM 1.4 °F -14.5 °F -11.2 °F 56% 30.36 in 25.0 mi SW 10.4 mph - N/A   Clear
1:00 PM 5.0 °F -12.3 °F -9.4 °F 52% 30.36 in 25.0 mi WSW 13.8 mph - N/A   Clear
2:00 PM 6.8 °F -7.8 °F -9.4 °F 48% 30.35 in 25.0 mi SW 10.4 mph 20.7 mph N/A   Clear
3:00 PM 6.8 °F -8.6 °F -9.4 °F 48% 30.34 in 30.0 mi WSW 11.5 mph 18.4 mph N/A Snow Low Drifting Snow
4:00 PM 6.8 °F -6.9 °F -9.4 °F 48% 30.35 in 30.0 mi WSW 9.2 mph 17.3 mph N/A   Mostly Cloudy
5:00 PM 3.2 °F -7.8 °F -9.4 °F 56% 30.32 in 25.0 mi SW 5.8 mph - N/A   Overcast
6:00 PM 3.2 °F - -9.4 °F 56% 30.31 in 25.0 mi Calm Calm - N/A   Overcast
7:00 PM 1.4 °F - -9.4 °F 61% 30.30 in 25.0 mi Calm Calm - N/A   Overcast
8:00 PM 3.2 °F - -7.6 °F 61% 30.29 in 25.0 mi SSE 2.3 mph - N/A   Overcast
9:00 PM 5.0 °F - -5.8 °F 61% 30.27 in 20.0 mi NNE 2.3 mph - N/A   Overcast
9:09 PM 5.0 °F - -4.0 °F 66% 30.27 in 15.0 mi Calm Calm - N/A Snow Light Snow Showers
10:00 PM 5.0 °F -4.1 °F -2.2 °F 72% 30.24 in 3.0 mi NNE 4.6 mph - N/A Snow Light Snow
11:00 PM 5.0 °F -2.1 °F 1.4 °F 85% 30.20 in 3.0 mi North 3.5 mph - N/A Snow Light Snow